PHOENIX (42706 NORAD) Tracking and Keplerian Element Data

This shows tracking and keplerian element data for the satellite.

Feedback or suggestion? Click here.




ElementValue
Catalog42706
NamePHOENIX
Epoch Orbit10590
Epoch Day81.99390219
Epoch Year2019
RAAN358.2513
Inclination51.6255
Eccentricity0.0004372
Argument of Perigee167.739
Mean Anonmoly192.3723
Mean Motion15.91079009
Decay Rate0.00113
L11 42706U 98067LP 19081.99390219 .00113000 15861-4 35820-3 0 9991
L22 42706 51.6255 358.2513 0004372 167.7390 192.3723 15.91079009105904

Live tracking and technical data element details for PHOENIX (NORAD 42706). PHOENIX can be tracked NOW for your location showing map with azimuth and elevation plus other details from your city location.

Track the satellite on the map from your city or location and see movement details for azimuth, elevation, latitude, longitude, range, height, and movement on the map or in text.







IsCatalogInMostPopularTable: catalog: 42706, numindb: 214
Update: records affected: 1



GetName: 42706 PHOENIX

Hit Count: updated at: Sun, 24 Mar 2019 08:38:39 GMT